IK5NLA Vaiano IT current weather conditions

sailwx.info

Wind from 239 at 7 knots

Air temperature 14.4° C
Dewpoint 10.3° C

Last reported at 2015-Apr-18 14:50 UTC.
Time now 2015-Apr-18 15:16 UTC

Location: N 43°58' E 011°06'.
View on Google Maps.

See reports from other nearby stations

  
Tides and Currents Weather Stations Pressure Air Temp Water Temp Dewpoint Dewpoint Depression Visibility Wind Speed Wind Dir Waves Ship Positions
date/time (UTC)wind fromknots sea level pressurealtimeterstation pressurevisibilityair tempwater tempwave heightnotes
2015-Apr-18 14:50 239 7 14.4
2015-Apr-18 14:45 229 6 14.4
2015-Apr-18 14:40 271 6 13.9
2015-Apr-18 14:35 263 7 13.9
2015-Apr-18 14:30 249 8 13.9
2015-Apr-18 14:25 240 9 13.9
2015-Apr-18 14:20 232 8 13.9
2015-Apr-18 14:10 234 10 13.9
2015-Apr-18 14:05 225 10 13.9
2015-Apr-18 14:00 215 9 13.9
2015-Apr-18 13:55 203 8 13.3
2015-Apr-18 13:50 201 7 13.3
2015-Apr-18 13:45 198 6 13.3
2015-Apr-18 13:35 238 6 13.9
2015-Apr-18 13:25 203 9 13.3
2015-Apr-18 13:10 162 6 13.9
2015-Apr-18 13:05 237 6 13.3
2015-Apr-18 13:00 238 6 13.3
2015-Apr-18 12:50 213 8 13.3
2015-Apr-18 12:45 248 9 12.8
2015-Apr-18 12:40 267 9 12.8
2015-Apr-18 12:35 209 8 12.8
2015-Apr-18 12:30 250 8 12.8
2015-Apr-18 12:25 250 8 12.8
2015-Apr-18 12:20 192 9 12.8
2015-Apr-18 12:15 250 10 12.2
2015-Apr-18 12:10 253 10 12.2
2015-Apr-18 11:55 209 10 12.2
2015-Apr-18 11:50 242 11 12.2
2015-Apr-18 11:45 239 12 11.7
2015-Apr-18 11:40 290 12 11.7
2015-Apr-18 11:35 265 12 11.7
2015-Apr-18 11:30 253 12 11.7
2015-Apr-18 11:20 269 12 11.7
2015-Apr-18 11:05 273 11 11.1
2015-Apr-18 11:00 240 10 11.1
2015-Apr-18 10:55 247 7 11.1
2015-Apr-18 10:45 240 10 11.1
2015-Apr-18 10:40 263 11 11.1
2015-Apr-18 10:35 241 11 11.1
2015-Apr-18 10:30 280 7 11.1
2015-Apr-18 10:25 273 4 11.1
2015-Apr-18 10:20 355 3 11.1
2015-Apr-18 10:15 186 4 11.1
2015-Apr-18 10:10 113 4 11.1
2015-Apr-18 10:05 183 4 11.1
2015-Apr-18 10:00 213 6 11.1
2015-Apr-18 09:55 214 7 11.1
2015-Apr-18 09:50 205 6 11.1
2015-Apr-18 09:45 172 6 11.1
2015-Apr-18 09:40 155 6 11.1
2015-Apr-18 09:30 188 6 10.6
2015-Apr-18 09:25 219 6 10.6
2015-Apr-18 09:20 215 6 10.6
2015-Apr-18 09:10 205 6 10.6
2015-Apr-18 09:00 190 6 10.6
2015-Apr-18 08:55 207 6 10.6
2015-Apr-18 08:45 238 4 11.1
2015-Apr-18 08:40 165 4 10.6
2015-Apr-18 08:25 269 5 10.6
2015-Apr-18 08:20 240 5 10.6
2015-Apr-18 08:15 192 5 10.6
2015-Apr-18 08:05 213 5 10.6
2015-Apr-18 07:55 260 4 10.6
2015-Apr-18 07:50 268 3 10.6
2015-Apr-18 07:40 232 3 10.6
2015-Apr-18 07:35 195 2 10.6
2015-Apr-18 07:30 214 3 10.6
2015-Apr-18 07:25 248 5 10.6
2015-Apr-18 07:20 230 4 10.6
2015-Apr-18 07:10 225 4 10.6
2015-Apr-18 07:00 194 3 10.6
2015-Apr-18 06:55 225 3 10.6
2015-Apr-18 06:50 203 4 10.6
2015-Apr-18 06:45 196 4 10.6
2015-Apr-18 06:40 215 3 10.6
2015-Apr-18 06:35 242 4 10.6
2015-Apr-18 06:25 195 3 10.6
2015-Apr-18 06:15 190 5 10.6
2015-Apr-18 06:05 157 6 10.6
2015-Apr-18 05:55 198 6 10.6
2015-Apr-18 05:50 202 4 10.6
2015-Apr-18 05:35 360 3 10.6
2015-Apr-18 05:30 263 4 10.6
2015-Apr-18 05:20 269 5 10.6
2015-Apr-18 05:15 231 5 10.6
2015-Apr-18 05:10 200 6 10.0
2015-Apr-18 05:05 240 6 10.0
2015-Apr-18 05:00 227 5 10.0
2015-Apr-18 04:55 228 4 10.0
2015-Apr-18 04:50 229 5 10.0
2015-Apr-18 04:40 257 6 10.0
2015-Apr-18 04:35 199 4 10.6
2015-Apr-18 04:30 187 4 10.6
2015-Apr-18 04:25 179 5 10.0
2015-Apr-18 04:10 230 6 10.0
2015-Apr-18 04:05 360 8 10.0
2015-Apr-18 04:00 248 8 10.0
2015-Apr-18 03:55 225 8 10.0
2015-Apr-18 03:50 205 7 10.6
2015-Apr-18 03:45 360 6 10.6
2015-Apr-18 03:40 200 5 10.6
2015-Apr-18 03:35 245 4 10.6
2015-Apr-18 03:25 178 5 10.6
2015-Apr-18 03:05 169 6 10.6
2015-Apr-18 03:00 227 6 10.6
2015-Apr-18 02:50 196 6 10.6
2015-Apr-18 02:45 172 6 10.6
2015-Apr-18 02:40 219 6 10.6
2015-Apr-18 02:35 195 5 10.6
2015-Apr-18 02:30 360 4 10.6
2015-Apr-18 02:25 224 4 10.6
2015-Apr-18 02:20 240 5 10.6
2015-Apr-18 02:15 219 5 10.6
2015-Apr-18 02:10 360 6 10.6
2015-Apr-18 01:55 242 4 10.6
2015-Apr-18 01:50 360 5 10.6
2015-Apr-18 01:35 360 6 10.6
2015-Apr-18 01:30 210 6 10.6
2015-Apr-18 01:20 360 6 10.6
2015-Apr-18 01:15 360 6 10.6
2015-Apr-18 01:10 206 5 10.6
2015-Apr-18 01:05 208 5 10.6
2015-Apr-18 01:00 264 5 10.6
2015-Apr-18 00:55 238 6 10.6
2015-Apr-18 00:35 254 6 10.6
2015-Apr-18 00:30 229 6 10.6
2015-Apr-18 00:25 203 6 10.6
2015-Apr-18 00:10 232 6 10.6
2015-Apr-18 00:05 192 8 10.6
2015-Apr-18 00:00 360 6 10.6
2015-Apr-17 23:55 238 5 10.6
2015-Apr-17 23:50 253 6 10.6
2015-Apr-17 23:45 178 6 10.6
2015-Apr-17 23:40 252 6 10.6
2015-Apr-17 23:35 360 6 10.6
2015-Apr-17 23:20 240 4 11.1
2015-Apr-17 23:05 191 6 11.1
2015-Apr-17 23:00 194 6 11.1
2015-Apr-17 22:50 193 8 11.1
2015-Apr-17 22:45 240 8 11.1
2015-Apr-17 22:40 219 8 11.1
2015-Apr-17 22:35 207 9 11.1
2015-Apr-17 22:30 184 8 11.1
2015-Apr-17 22:25 215 6 11.1
2015-Apr-17 22:20 159 7 11.1
2015-Apr-17 22:15 211 7 11.1
2015-Apr-17 22:10 190 6 11.1
2015-Apr-17 21:55 244 6 11.1
2015-Apr-17 21:50 247 6 11.1
2015-Apr-17 21:45 271 6 11.1
2015-Apr-17 21:40 254 7 11.1
2015-Apr-17 21:30 200 6 11.1
2015-Apr-17 21:25 257 4 11.1
2015-Apr-17 21:15 200 6 11.1
2015-Apr-17 21:10 205 6 11.7
2015-Apr-17 20:55 259 6 11.7
2015-Apr-17 20:45 212 6 11.7
2015-Apr-17 20:30 276 7 11.7
2015-Apr-17 20:10 203 6 11.7
2015-Apr-17 20:05 235 6 11.7
2015-Apr-17 19:55 242 7 12.2
2015-Apr-17 19:50 236 7 12.2
2015-Apr-17 19:45 303 7 12.2
2015-Apr-17 19:30 246 5 12.2
2015-Apr-17 19:25 295 5 12.2
2015-Apr-17 19:20 242 4 12.2
2015-Apr-17 19:10 202 3 11.7
2015-Apr-17 19:00 187 0 11.7
2015-Apr-17 18:55 188 11.7
2015-Apr-17 18:50 188 11.7
2015-Apr-17 18:40 188 11.7
2015-Apr-17 18:35 188 11.7
2015-Apr-17 18:30 189 11.7
2015-Apr-17 18:20 122 11.7
2015-Apr-17 18:15 122 11.7
2015-Apr-17 18:10 122 11.7
2015-Apr-17 17:55 122 11.7
2015-Apr-17 17:45 122 0 11.7
2015-Apr-17 17:35 122 0 11.7
2015-Apr-17 17:25 153 0 11.7
2015-Apr-17 17:10 153 0 12.2
2015-Apr-17 17:00 159 0 12.2
2015-Apr-17 16:45 078 0 12.2
2015-Apr-17 16:35 138 0 12.2
2015-Apr-17 16:30 141 0 12.2
2015-Apr-17 16:25 142 0 12.2
2015-Apr-17 16:20 115 12.2
2015-Apr-17 16:15 115 12.2
2015-Apr-17 16:10 078 12.2
2015-Apr-17 16:05 078 12.2
2015-Apr-17 16:00 079 0 11.7
2015-Apr-17 15:55 079 0 11.7
2015-Apr-17 15:50 078 11.7
2015-Apr-17 15:45 078 0 11.7
2015-Apr-17 15:35 078 2 11.7
2015-Apr-17 15:30 092 2 12.2
2015-Apr-17 15:25 083 2 12.2
2015-Apr-17 15:20 143 3 12.8
2015-Apr-17 15:15 241 5 12.2
2015-Apr-17 15:00 245 4 12.2
2015-Apr-17 14:55 283 3 12.2
2015-Apr-17 14:45 270 2 11.7
2015-Apr-17 14:35 192 3 11.7
2015-Apr-17 14:30 243 4 11.7
2015-Apr-17 14:25 271 5 11.7
2015-Apr-17 14:20 257 6 11.7
2015-Apr-17 14:16 198 5 11.7
2015-Apr-17 14:10 220 5 11.7
2015-Apr-17 14:05 231 6 11.7
2015-Apr-17 14:00 232 6 11.7
2015-Apr-17 13:50 242 6 11.7
2015-Apr-17 13:45 231 5 11.7
2015-Apr-17 13:40 279 4 11.7
2015-Apr-17 13:35 217 4 11.7
2015-Apr-17 13:30 248 4 11.7
2015-Apr-17 13:25 246 4 11.7
2015-Apr-17 13:20 244 4 11.7
2015-Apr-17 13:10 232 7 11.7
2015-Apr-17 13:05 256 6 11.7
2015-Apr-17 13:00 269 7 11.7
2015-Apr-17 12:55 242 7 11.7
2015-Apr-17 12:50 264 7 11.7
2015-Apr-17 12:45 254 8 11.7
2015-Apr-17 12:40 254 6 11.7
2015-Apr-17 12:35 271 5 11.7
2015-Apr-17 12:30 273 4 11.7
2015-Apr-17 12:25 241 5 11.7
2015-Apr-17 12:15 249 6 12.2
2015-Apr-17 12:05 303 6 12.8
2015-Apr-17 12:00 183 5 12.8
2015-Apr-17 11:55 180 5 13.3
2015-Apr-17 11:50 242 6 13.3
2015-Apr-17 11:40 209 4 13.3
2015-Apr-17 11:15 210 6 13.3
2015-Apr-17 11:05 218 6 13.9
2015-Apr-17 11:00 267 8 13.3
2015-Apr-17 10:55 237 8 13.3
2015-Apr-17 10:40 202 7 13.9
2015-Apr-17 10:35 226 6 14.4
2015-Apr-17 10:30 229 4 14.4
2015-Apr-17 10:25 259 4 13.9
2015-Apr-17 10:10 200 6 13.3
2015-Apr-17 10:05 227 6 13.3
2015-Apr-17 09:55 215 6 13.9
2015-Apr-17 09:50 263 5 13.3
2015-Apr-17 09:45 257 6 13.3
2015-Apr-17 09:40 186 6 13.3
2015-Apr-17 09:35 265 5 13.3
2015-Apr-17 09:25 239 5 13.3
2015-Apr-17 09:20 266 5 12.8
2015-Apr-17 09:10 173 6 12.8
2015-Apr-17 09:05 194 6 13.3
2015-Apr-17 08:55 246 5 13.3
2015-Apr-17 08:40 189 6 12.8
2015-Apr-17 08:35 195 6 12.8
2015-Apr-17 08:30 246 6 12.8
2015-Apr-17 08:20 239 5 12.8
2015-Apr-17 08:15 183 6 12.8
2015-Apr-17 08:00 213 6 13.3
2015-Apr-17 07:55 259 6 13.3
2015-Apr-17 07:45 253 6 13.3
2015-Apr-17 07:40 192 6 13.9
2015-Apr-17 07:30 245 3 13.3
2015-Apr-17 07:20 231 2 12.2
2015-Apr-17 07:15 233 3 12.2
2015-Apr-17 07:10 234 3 12.2
2015-Apr-17 07:00 220 3 12.2
2015-Apr-17 06:55 240 3 11.7
2015-Apr-17 06:50 245 2 11.7
2015-Apr-17 06:45 221 2 11.7
2015-Apr-17 06:30 244 3 11.1
2015-Apr-17 06:25 275 3 11.1
2015-Apr-17 06:20 245 2 11.1
2015-Apr-17 06:15 261 2 11.1
2015-Apr-17 06:05 240 3 11.7
2015-Apr-17 06:00 236 2 11.7
2015-Apr-17 05:55 238 1 11.7
2015-Apr-17 05:50 216 1 11.7
2015-Apr-17 05:45 216 3 12.2
2015-Apr-17 05:40 221 4 12.2
2015-Apr-17 05:35 252 4 12.2
2015-Apr-17 05:30 267 4 12.2
2015-Apr-17 05:15 257 3 12.2
2015-Apr-17 05:10 250 3 12.2
2015-Apr-17 05:05 271 3 12.2
2015-Apr-17 05:00 227 3 11.7
2015-Apr-17 04:55 270 0 11.7
2015-Apr-17 04:50 248 0 11.7
2015-Apr-17 04:45 248 1 11.7
2015-Apr-17 04:25 330 1 11.7
2015-Apr-17 04:05 329 2 11.7
2015-Apr-17 04:00 330 2 11.1
2015-Apr-17 03:55 329 2 11.1
2015-Apr-17 03:40 307 2 11.7
2015-Apr-17 03:35 300 1 11.7
2015-Apr-17 03:20 280 2 11.7
2015-Apr-17 03:15 281 2 11.7
2015-Apr-17 03:10 264 3 11.7
2015-Apr-17 02:55 271 2 11.7
2015-Apr-17 02:40 276 2 11.1
2015-Apr-17 02:30 278 2 11.7
2015-Apr-17 02:15 275 5 11.7
2015-Apr-17 02:10 256 5 11.7
2015-Apr-17 01:55 244 5 11.7
2015-Apr-17 01:45 248 4 11.7
2015-Apr-17 01:40 206 4 11.7
2015-Apr-17 01:30 232 3 11.7
2015-Apr-17 01:25 218 3 11.7
2015-Apr-17 01:15 235 3 11.7
2015-Apr-17 01:05 236 1 11.7
2015-Apr-17 01:00 235 2 11.7
2015-Apr-17 00:55 231 2 11.7
2015-Apr-17 00:45 226 3 11.7
2015-Apr-17 00:35 245 3 12.2
2015-Apr-17 00:30 277 4 12.2
2015-Apr-17 00:25 223 4 12.2
2015-Apr-17 00:20 242 6 12.2
2015-Apr-17 00:10 256 6 12.2
2015-Apr-16 23:55 277 3 11.7
2015-Apr-16 23:50 242 3 11.7
2015-Apr-16 23:45 218 3 12.2
2015-Apr-16 23:40 248 4 12.2
2015-Apr-16 23:35 240 4 12.2
2015-Apr-16 23:30 227 4 12.8
2015-Apr-16 23:25 247 4 12.8
2015-Apr-16 23:20 215 4 12.8
2015-Apr-16 23:05 236 6 13.3
2015-Apr-16 23:00 262 6 12.8
2015-Apr-16 22:55 252 6 13.3
2015-Apr-16 22:45 242 5 13.3
2015-Apr-16 22:25 256 6 13.3
2015-Apr-16 22:20 267 6 12.8
2015-Apr-16 22:15 233 5 12.8
2015-Apr-16 22:10 273 6 12.8
2015-Apr-16 22:05 267 6 12.8
2015-Apr-16 22:00 277 6 12.8
2015-Apr-16 21:55 256 4 12.8
2015-Apr-16 21:50 256 5 13.3
2015-Apr-16 21:45 248 5 13.3
2015-Apr-16 21:35 209 2 12.8
2015-Apr-16 21:30 234 2 12.8
2015-Apr-16 21:25 279 2 12.8
2015-Apr-16 21:20 274 3 12.8
2015-Apr-16 21:15 291 3 12.8
2015-Apr-16 21:10 276 3 12.8
2015-Apr-16 21:06 255 3 12.8
2015-Apr-16 21:00 265 3 12.8
2015-Apr-16 20:55 296 3 12.8
2015-Apr-16 20:50 286 3 12.8
2015-Apr-16 20:45 275 3 12.8
2015-Apr-16 20:40 281 3 12.8
2015-Apr-16 20:35 290 4 13.3
2015-Apr-16 20:25 284 4 13.3
2015-Apr-16 20:20 274 4 13.3
2015-Apr-16 20:15 246 3 13.3
2015-Apr-16 20:10 265 2 13.3
2015-Apr-16 20:00 277 2 13.3
2015-Apr-16 19:55 262 2 13.3
2015-Apr-16 19:46 226 2 13.3
2015-Apr-16 19:40 262 2 13.3
2015-Apr-16 19:35 250 2 13.3
2015-Apr-16 19:25 275 3 13.3
2015-Apr-16 19:20 284 3 13.3
2015-Apr-16 19:10 299 3 13.3
2015-Apr-16 19:00 279 3 13.3
2015-Apr-16 18:55 257 3 13.3
2015-Apr-16 18:45 279 2 13.3
2015-Apr-16 18:40 233 3 13.9
2015-Apr-16 18:35 223 3 13.9
2015-Apr-16 18:30 227 2 13.9
2015-Apr-16 18:25 288 2 13.9
2015-Apr-16 18:15 244 5 13.9
2015-Apr-16 18:10 256 5 13.9
2015-Apr-16 18:05 243 5 14.4
2015-Apr-16 18:00 217 6 14.4
2015-Apr-16 17:55 206 5 14.4
2015-Apr-16 17:45 191 4 15.0
2015-Apr-16 17:40 191 3 15.6
2015-Apr-16 17:35 182 3 15.6
2015-Apr-16 17:30 194 5 15.6
2015-Apr-16 17:20 258 6 16.1
2015-Apr-16 17:15 245 5 16.1
2015-Apr-16 17:10 260 6 16.1
2015-Apr-16 17:05 252 6 16.1
2015-Apr-16 16:55 263 7 16.7
2015-Apr-16 16:50 268 7 16.7
2015-Apr-16 16:40 237 7 16.7
2015-Apr-16 16:35 215 5 17.2
2015-Apr-16 16:25 205 5 17.2
2015-Apr-16 16:20 242 6 17.2
2015-Apr-16 16:15 188 7 17.2
2015-Apr-16 16:10 235 5 17.2
2015-Apr-16 16:05 250 3 17.2
2015-Apr-16 16:00 246 4 17.2
2015-Apr-16 15:55 255 4 17.2
2015-Apr-16 15:50 269 6 17.2
2015-Apr-16 15:45 205 5 17.2
2015-Apr-16 15:40 213 4 17.2
2015-Apr-16 15:35 239 3 17.2
2015-Apr-16 15:30 214 3 17.2
2015-Apr-16 15:25 279 5 17.2
2015-Apr-16 15:20 200 6 17.2
2015-Apr-16 15:15 271 6 17.2
2015-Apr-16 15:10 241 6 17.2
2015-Apr-16 15:05 264 6 17.2
2015-Apr-16 15:00 205 6 17.2